Location: ???? ?????
(30.0052°N, 31.2891°E)
Time: 20:22:28
(UTC+00:00)

Iridium 16 - Pass Details

Date: 05 February 2023
Orbit: 765 x 769 km, 86.4° (Epoch: 01 April)

Event Time Altitude Azimuth Distance (km) Brightness Sun altitude
Rises 03:16:49 0° 198° (SSW) 3,217 8.6 -19.0°
Reaches altitude 10° 03:19:16 10° 205° (SSW) 2,295 7.8 -18.5°
Maximum altitude 03:24:05 41° 275° (W) 1,109 5.8 -17.4°
Drops below altitude 10° 03:28:56 10° 345° (NNW) 2,309 7.7 -16.4°
Sets 03:31:25 0° 352° (N) 3,239 8.6 -15.9°
